Temp
13 11 12 13 13 13 12 11 11 13 13 13 13 13 14 15 15 15 16 17 18 19 20 23 23 25 25 24 25 24 22 20 19 18 17 17 17 18 18 18 19 19 19 18
11 11 13 14 13 13 12 11 12 13 14 13 12 12 14 14 15 15 16 17 17 18 20 21 22 23 24 25 24 24 22 21 20 18 18 18 17 17 17 17 17 19 19 18
12 13 14 13 12 12 12 11 11 11 12 13 12 12 14 15 15 16 16 17 17 18 19 21 22 23 23 23 24 22 22 21 20 19 18 18 17 17 17 17 17 18 18 18
13 13 12 11 12 12 10 12 12 11 11 10 12 9 12 14 14 15 16 16 16 17 19 20 22 22 23 25 24 23 22 21 20 19 18 18 18 17 18 17 17 17 18 18
12 12 11 11 12 12 11 11 11 11 10 10 10 9 12 14 14 15 16 16 16 18 19 20 21 23 24 25 23 22 22 21 20 18 18 18 19 18 17 17 17 17 17 18
12 12 12 12 12 12 11 11 11 10 9 8 10 10 12 14 15 16 16 16 17 18 19 20 21 23 21 23 27 22 20 20 20 18 18 18 19 17 17 17 17 16 16 16
10 11 12 12 10 11 10 10 9 10 10 11 14 12 13 15 16 16 16 16 17 17 16 16 19 20 17 18 19 19 19 19 19 18 18 18 18 17 17 16 16 16 16 16
8 9 11 12 11 10 9 9 8 9 10 10 12 11 14 16 16 15 15 17 14 12 12 13 14 13 13 13 14 15 17 17 18 18 17 18 17 17 18 17 16 16 16 16
8 9 11 11 12 10 8 8 10 8 9 10 11 12 13 16 14 14 13 14 14 14 13 13 12 13 13 12 12 13 15 16 17 18 17 17 17 17 17 17 17 17 17 16
10 7 11 11 11 10 10 10 8 9 9 9 11 12 13 14 13 15 13 12 11 13 13 12 11 11 10 11 11 12 12 13 15 16 16 17 17 17 18 17 17 17 17 17
9 7 9 9 7 8 7 7 9 9 8 9 10 12 15 14 13 13 12 11 12 12 12 12 10 10 9 9 9 9 10 11 13 14 15 16 16 16 17 17 17 17 17 17
8 6 7 9 9 10 10 10 9 8 8 10 9 11 13 12 13 12 11 11 12 11 10 10 9 8 8 7 7 7 8 9 11 13 14 15 15 16 16 16 17 17 17 16
9 5 5 8 8 10 9 9 10 8 9 9 10 11 13 11 12 12 11 10 11 11 10 9 8 7 7 6 6 6 6 6 8 10 11 12 14 14 14 15 15 15 15 16
8 6 4 3 6 6 6 8 9 8 8 9 10 8 11 9 9 10 10 9 8 7 9 9 8 7 6 5 4 4 4 5 6 7 7 8 10 12 13 14 15 15 16 15
7 5 5 6 7 8 8 9 8 8 8 8 8 8 8 7 8 10 10 9 8 7 6 7 7 6 6 5 4 3 3 3 4 4 5 5 6 9 11 13 13 15 15 16
6 6 7 8 8 8 8 8 7 9 8 8 8 8 6 7 7 10 10 9 8 6 5 4 6 6 5 4 3 2 3 2 3 3 3 3 5 6 7 9 12 13 14 14
6 6 7 7 8 8 8 6 7 7 7 6 6 6 5 6 5 6 7 7 6 5 3 3 3 4 4 3 2 1 2 2 2 1 1 2 2 3 5 6 9 10 11 13
6 6 6 6 7 5 7 9 8 6 7 5 5 5 5 5 4 4 5 5 5 5 4 2 2 2 2 2 1 1 0 1 1 0 0 1 1 2 2 4 5 7 8 9
6 6 5 7 8 9 7 8 6 5 6 5 5 5 5 5 3 3 3 3 2 4 3 2 1 0 0 1 1 0 -0 -0 -0 -1 -1 -1 0 0 1 1 2 4 6 7
7 6 6 6 7 5 6 7 5 6 6 4 4 4 5 5 5 4 2 2 2 2 2 0 -1 -1 -1 -1 0 -0 -1 -1 -1 -2 -2 -2 -1 -1 -1 -0 1 2 3 4
6 5 6 6 7 5 5 4 5 6 4 3 3 4 4 4 3 2 1 2 1 0 -0 -1 -1 -2 -1 -2 -1 -1 -1 -2 -2 -3 -3 -2 -2 -1 -1 -0 -0 0 1 2
5 5 3 4 5 5 4 5 5 3 3 3 3 3 3 2 2 1 1 1 -0 -1 -2 -2 -2 -2 -2 -2 -2 -2 -2 -2 -3 -3 -3 -4 -3 -3 -2 -1 -1 -0 0 1
4 3 3 4 4 4 4 4 4 3 3 3 2 3 3 2 1 0 0 -0 -1 -2 -2 -2 -2 -2 -3 -3 -3 -2 -3 -3 -3 -4 -4 -4 -4 -4 -4 -3 -3 -2 -1 -1
5 5 3 4 4 4 4 4 3 3 3 2 2 3 2 1 0 -0 -1 -2 -2 -3 -3 -3 -3 -3 -3 -4 -3 -3 -3 -3 -4 -4 -4 -5 -5 -5 -5 -5 -5 -4 -4 -3
2 3 2 4 4 4 4 3 2 2 3 2 2 2 1 1 -1 -1 -2 -3 -3 -4 -4 -5 -5 -5 -5 -4 -4 -4 -4 -4 -4 -4 -5 -5 -5 -5 -5 -5 -5 -5 -5 -4
1 1 1 2 2 2 3 3 2 1 1 2 0 1 0 -1 -2 -2 -3 -4 -5 -5 -5 -6 -6 -6 -6 -5 -5 -4 -4 -4 -4 -4 -5 -6 -6 -6 -6 -5 -5 -5 -5 -5
Height
794 808 809 803 803 804 807 808 804 786 786 780 777 761 747 742 742 735 721 714 707 698 687 681 678 678 680 683 683 682 686 691 699 706 712 718 721 724 729 734 738 742 748 752
805 809 803 799 802 804 805 804 796 776 777 776 769 750 735 732 723 720 711 703 696 689 680 675 671 672 670 672 673 676 676 680 685 692 698 706 712 718 723 730 735 740 743 748
804 803 798 801 804 804 804 803 794 794 772 764 763 741 728 714 711 702 697 693 688 683 676 668 662 660 661 662 664 666 666 670 674 681 692 701 710 717 723 727 730 732 737 742
798 800 802 806 804 804 806 794 793 789 787 781 754 762 737 705 702 692 683 678 675 670 664 660 655 652 650 650 655 655 656 660 666 674 681 687 692 702 708 713 722 727 733 738
801 802 805 804 802 800 802 793 792 781 780 781 746 774 718 705 696 682 673 667 663 656 650 647 645 641 639 638 642 646 648 655 658 664 670 678 686 692 700 709 716 722 728 734
802 798 799 797 797 798 796 796 780 773 779 786 754 755 722 698 684 671 661 655 649 643 638 635 633 632 633 632 640 644 650 650 653 656 663 671 679 686 693 703 710 718 725 730
812 802 797 795 800 797 804 802 799 785 772 753 733 738 711 690 677 665 655 647 639 633 632 631 629 627 631 626 634 641 647 648 651 654 659 667 674 678 684 695 705 713 718 724
820 814 801 798 803 806 807 810 818 805 781 763 738 738 704 685 674 666 652 643 641 638 637 636 632 628 628 632 633 639 642 645 650 655 659 665 670 679 686 693 700 706 711 716
819 815 800 801 798 803 812 815 803 809 784 771 739 719 699 684 682 671 664 649 641 643 643 643 644 639 635 630 633 639 644 646 649 655 662 664 668 673 680 688 696 700 705 709
806 825 801 800 800 801 803 801 811 802 788 770 739 719 708 692 687 675 674 670 665 652 649 652 651 648 643 640 641 646 651 654 650 656 660 663 668 673 678 685 691 696 701 706
807 821 812 806 816 809 817 820 807 802 800 773 748 719 703 701 693 682 682 682 669 661 661 664 663 658 656 656 656 655 656 655 656 660 661 663 669 675 681 685 688 692 697 702
810 826 823 811 799 797 801 801 802 802 787 766 759 727 712 709 700 692 691 687 679 677 672 675 671 664 664 669 670 665 665 661 663 669 666 668 673 677 680 682 685 690 692 698
807 829 830 809 810 800 805 799 793 794 782 767 750 730 715 720 709 699 696 694 688 688 685 675 669 668 666 679 682 670 673 675 672 673 671 673 677 679 682 683 685 688 691 695
807 821 836 847 825 818 822 801 795 794 787 772 756 755 728 733 723 710 706 707 704 700 698 688 687 686 677 689 692 684 684 682 679 677 679 681 681 681 683 685 686 688 691 693
811 827 824 813 810 808 807 800 798 793 788 780 770 756 744 746 734 720 717 712 711 711 713 708 704 701 693 707 702 696 693 691 691 689 688 688 686 684 683 684 687 689 691 693
815 819 807 803 799 798 798 800 799 784 785 777 768 756 761 742 736 725 724 720 718 722 723 719 713 709 705 711 710 707 702 699 698 695 694 693 690 688 686 685 685 688 688 690
814 816 809 805 794 794 794 805 797 792 790 793 780 776 768 757 752 748 738 738 736 733 734 728 722 717 715 721 717 712 709 708 706 702 700 698 696 693 690 688 688 687 690 689
809 811 812 810 797 815 800 790 794 795 791 797 790 781 773 769 769 762 753 748 744 741 742 741 735 728 732 728 721 719 716 715 711 709 706 705 702 699 696 694 692 692 690 690
803 808 815 804 795 784 793 790 801 801 790 797 794 786 776 770 768 764 768 764 763 755 757 754 749 742 734 731 729 725 722 720 717 715 714 711 708 704 701 700 697 694 692 692
798 801 808 806 803 811 799 789 796 795 791 798 793 790 779 774 772 775 776 773 767 763 761 758 753 750 742 735 732 730 729 727 724 723 720 716 711 708 707 703 700 696 694 693
805 807 805 806 799 802 796 797 790 789 805 798 798 790 786 783 786 784 781 777 775 770 766 762 758 752 747 743 740 737 735 732 731 727 724 719 714 712 709 706 703 700 697 694
808 812 825 815 811 806 802 794 797 805 801 800 795 789 788 790 788 787 784 781 778 775 771 768 764 758 755 752 748 745 742 740 737 732 728 724 720 715 713 710 706 703 700 696
816 813 816 812 809 801 802 804 804 804 804 801 798 793 790 789 788 786 785 784 782 780 776 774 768 763 760 756 754 750 748 744 739 736 733 730 726 720 717 714 710 705 703 703
802 800 811 806 799 800 802 802 804 804 802 802 800 796 793 792 791 789 789 788 786 782 779 775 772 767 765 760 758 754 751 746 742 741 740 738 733 729 723 721 714 712 710 710
811 807 810 803 800 799 800 803 806 803 801 801 799 798 796 795 795 793 794 794 791 787 785 781 777 773 770 765 762 758 754 750 748 746 745 742 738 736 732 729 725 721 718 718
804 806 812 809 796 799 798 801 805 805 802 799 800 799 798 797 797 795 795 795 794 793 791 786 782 778 772 767 763 759 755 753 750 749 750 746 744 743 739 737 733 730 729 725
Wind_Speed
4 7 3 2 1 3 5 6 14 18 11 15 15 23 26 20 20 23 26 24 24 23 23 31 32 22 27 33 40 43 41 41 38 33 32 30 33 39 38 37 38 36 36 36
6 4 2 2 5 4 5 12 16 21 9 14 18 32 30 25 23 21 24 25 20 21 22 20 27 22 22 24 33 43 42 41 44 39 40 32 34 31 33 33 35 36 38 38
5 3 2 5 5 7 4 7 12 13 26 25 20 24 25 31 24 25 25 24 26 24 23 21 21 25 28 21 27 39 40 41 45 40 35 23 25 20 25 31 36 40 41 41
4 1 6 4 2 7 10 6 11 19 17 13 18 17 30 29 25 25 25 23 23 22 18 18 20 20 21 29 24 28 37 40 43 41 36 38 38 29 29 35 32 34 40 40
1 4 6 1 2 13 9 9 13 23 19 16 32 4 12 20 27 27 25 22 17 18 17 20 20 20 22 30 15 20 28 39 39 41 41 40 33 32 24 28 29 32 38 39
4 3 2 2 4 4 8 11 22 8 1 4 11 5 19 22 18 22 21 17 20 17 14 17 18 24 14 9 21 15 25 33 37 41 40 39 36 31 27 27 27 29 30 34
4 3 4 3 10 3 9 12 5 5 3 9 13 15 12 23 23 22 21 18 17 14 9 9 10 11 4 13 5 12 22 23 30 34 34 35 33 35 34 31 29 29 29 29
3 5 3 5 1 4 4 3 2 6 9 18 20 5 9 17 22 19 16 15 6 7 6 7 3 6 10 15 17 13 19 19 21 25 26 29 30 32 32 32 31 31 33 33
2 3 2 4 2 4 3 1 8 7 13 9 5 8 9 14 22 27 27 26 6 10 12 11 9 10 14 22 22 21 17 19 21 24 23 28 30 32 32 32 32 33 35 36
1 3 1 4 2 4 4 4 6 4 6 9 7 12 9 19 18 22 26 28 15 9 14 11 9 11 18 22 24 26 19 20 21 17 17 22 25 25 27 30 32 32 33 32
3 3 4 4 2 6 4 3 3 5 4 5 8 10 8 13 14 15 16 25 17 15 12 9 7 15 20 22 22 22 23 24 24 18 16 10 12 19 21 26 30 31 30 31
1 3 2 7 10 5 4 7 9 4 8 10 8 14 10 17 14 13 15 17 18 15 14 9 9 14 23 21 20 23 23 25 21 17 15 13 7 8 18 22 26 28 28 27
2 1 3 4 6 4 3 12 12 14 8 8 6 6 20 18 18 12 11 12 13 18 14 12 16 17 19 24 19 26 25 22 23 20 19 17 9 6 7 16 22 22 24 26
4 3 7 6 9 4 6 15 16 11 3 10 7 22 14 23 23 15 16 17 17 19 20 14 15 15 24 26 23 26 25 26 24 22 20 17 15 12 1 9 14 16 19 23
3 3 5 7 12 14 15 14 11 10 7 5 19 19 15 24 18 10 9 10 15 16 18 18 15 14 20 20 23 25 26 27 23 22 23 21 16 13 11 6 11 21 22 22
0 3 1 4 10 11 9 5 10 7 6 12 17 14 20 16 19 12 11 14 16 16 15 15 17 17 18 21 21 22 23 25 24 24 23 23 20 16 14 11 6 10 23 23
3 3 1 4 5 10 4 4 8 9 8 9 9 16 16 16 18 20 17 18 18 17 16 17 17 17 23 21 22 23 23 22 23 23 25 26 24 22 19 14 9 8 3 16
5 4 2 4 4 2 3 2 7 12 2 12 11 16 13 8 11 18 19 18 18 18 17 16 15 20 20 22 24 23 24 21 21 22 24 26 25 23 20 17 15 11 8 5
8 3 1 2 2 2 2 1 6 5 3 13 11 14 12 9 5 10 16 16 15 15 13 16 18 19 22 25 22 21 22 22 22 22 21 21 22 22 22 19 19 16 13 10
5 1 3 1 2 4 4 9 9 5 6 13 15 13 11 12 6 5 11 13 14 19 18 18 19 19 21 25 23 22 21 20 21 20 19 19 19 19 21 19 18 16 13 8
2 1 1 2 3 4 3 13 9 3 5 14 11 10 8 5 3 6 9 11 14 16 19 19 19 20 22 24 21 20 21 21 20 19 18 20 19 18 19 19 17 16 13 8
2 1 1 1 1 5 4 3 4 5 8 10 10 10 6 6 6 7 9 10 14 16 19 19 16 17 19 20 19 18 19 18 18 18 19 21 21 19 19 19 19 17 15 13
1 4 3 5 4 1 2 0 4 6 6 7 8 8 8 8 8 9 10 12 14 17 16 16 15 16 18 20 20 18 20 19 18 18 19 20 22 24 22 22 22 22 20 17
2 2 2 0 3 4 3 1 3 6 4 6 8 8 7 7 8 8 9 10 13 16 17 17 16 17 17 20 20 20 20 17 18 16 16 17 18 22 26 24 24 24 22 17
5 1 4 4 1 4 4 1 3 6 5 4 5 8 6 6 7 7 7 9 13 15 16 15 16 15 16 17 19 21 20 18 15 14 15 16 17 17 20 28 27 24 29 21
4 6 4 5 3 4 3 4 1 5 7 3 6 7 8 6 6 8 7 7 11 13 14 14 15 15 18 19 20 21 21 18 17 13 13 15 14 15 16 16 25 32 30 29
Wind_Direction
356 67 61 321 6 235 268 283 300 294 301 298 293 280 286 289 281 279 284 282 282 282 283 285 276 260 245 240 228 218 210 208 197 189 186 191 196 202 206 208 208 206 206 207
23 125 60 96 24 9 325 301 299 289 317 310 309 294 290 287 279 266 267 275 277 283 281 275 274 261 252 248 235 223 212 202 199 193 195 195 196 200 201 203 209 210 209 209
145 70 24 51 331 317 301 275 299 294 312 300 286 286 301 294 285 274 268 267 275 269 276 270 268 265 260 242 236 222 213 202 198 193 188 185 179 181 189 206 207 211 212 210
114 358 16 359 312 348 328 268 303 301 309 299 295 291 298 286 287 283 273 264 261 262 260 268 263 260 251 260 247 233 211 201 198 189 183 181 181 183 198 199 197 198 206 208
308 328 314 31 34 347 274 308 302 297 279 297 284 232 267 294 288 282 282 271 260 257 243 249 249 250 248 263 273 268 223 204 194 186 184 185 187 190 184 185 189 195 201 208
199 264 159 189 328 298 307 342 314 298 224 250 260 241 299 300 295 289 278 266 257 258 255 248 241 242 236 237 269 270 213 205 191 184 185 187 186 178 169 178 184 192 195 204
341 333 338 41 346 335 21 349 319 327 318 283 315 315 279 305 303 299 277 266 256 264 260 248 240 234 213 163 211 211 195 190 190 184 183 186 186 181 177 177 182 185 191 198
52 350 354 336 286 280 340 91 321 301 303 297 305 250 286 314 346 338 312 283 0 31 20 16 48 105 104 84 87 131 160 162 178 180 180 179 179 177 184 183 184 188 194 199
34 275 266 327 327 108 276 322 275 264 260 267 274 283 291 329 4 4 359 353 82 56 39 37 50 69 81 79 71 72 103 131 150 169 171 177 180 182 186 192 200 198 201 203
129 310 258 300 353 45 145 287 320 269 300 302 268 298 295 348 354 8 6 6 16 17 49 15 38 51 51 62 66 68 62 75 95 130 159 173 183 190 198 200 202 204 207 209
123 128 301 6 351 306 346 343 293 268 238 286 302 298 320 351 1 11 7 350 349 25 29 1 41 53 51 50 54 54 50 54 56 72 89 124 183 198 205 207 207 209 208 209
189 160 298 295 286 255 177 323 302 286 280 258 269 285 19 7 7 355 28 356 24 27 22 326 36 62 52 38 36 47 43 46 52 62 68 77 84 187 214 217 215 212 209 211
162 325 340 342 3 356 323 306 308 302 268 301 291 295 344 1 347 358 13 6 25 22 14 3 35 41 55 30 18 40 33 34 47 59 66 66 67 101 187 208 209 207 205 200
127 159 165 195 236 255 302 294 313 315 300 308 314 314 336 346 338 17 19 35 31 36 23 19 31 36 52 29 15 30 27 28 36 47 50 53 48 53 107 208 195 190 195 197
97 210 195 232 256 272 267 289 311 309 345 349 319 316 332 329 320 45 51 61 43 40 27 17 37 41 54 34 23 27 28 26 25 38 37 30 34 47 60 116 212 206 197 193
262 257 237 269 253 253 258 315 307 302 333 338 332 337 341 8 17 3 31 39 51 35 29 18 28 40 46 30 27 23 26 24 23 29 26 23 28 30 34 41 37 208 200 195
201 206 66 271 297 304 150 307 331 309 1 344 349 326 330 15 23 16 32 29 31 35 16 18 24 34 35 23 22 22 22 22 26 25 22 18 19 22 21 20 26 26 299 209
193 166 176 266 296 333 212 214 349 323 330 7 336 343 356 26 14 23 23 27 26 26 22 18 20 28 23 21 24 22 22 22 25 23 21 17 13 14 16 14 13 2 350 348
197 137 234 236 258 224 309 80 347 331 304 9 347 349 350 357 349 28 18 27 21 25 23 24 17 20 20 19 18 20 21 20 21 18 14 14 14 10 10 9 7 358 345 338
150 145 167 282 251 242 224 318 331 285 243 359 349 353 359 3 23 2 360 13 15 18 17 16 17 19 22 15 15 19 18 16 16 8 6 12 19 16 8 7 3 4 352 334
45 13 169 281 251 285 322 316 314 182 290 336 335 336 4 15 19 338 359 10 10 9 13 13 14 16 17 13 11 18 16 12 3 5 11 20 25 21 16 12 13 13 9 18
161 141 223 285 307 281 1 351 62 310 323 326 326 339 355 13 20 17 6 8 7 9 10 13 10 18 16 15 14 14 16 6 8 11 16 21 26 30 26 26 27 30 28 38
265 181 198 185 226 197 103 80 314 316 314 327 314 346 1 358 17 18 9 7 5 6 8 3 9 16 15 14 15 13 6 9 15 17 19 19 26 34 36 34 33 34 36 41
286 164 194 39 233 207 171 142 300 308 294 326 329 351 8 6 12 26 14 7 1 8 4 2 9 16 10 9 10 15 10 13 24 19 19 21 29 33 39 40 43 39 35 33
202 95 188 258 11 136 205 193 296 304 313 315 350 8 26 17 28 31 27 17 6 9 2 4 6 6 5 10 10 15 17 19 20 23 22 24 28 33 46 51 49 53 53 56
185 201 166 228 178 148 145 136 6 330 314 329 31 7 21 38 32 32 33 28 18 12 8 10 9 7 12 18 17 17 18 21 27 24 23 31 32 31 42 56 64 60 60 62